Tracking 19969 objects as of 12-Nov-2019
Live streaming from Space Station
objects crossing your sky now
Track the group of recently launched Starlink satellites

NOAA 16 DEB

Track NOAA 16 DEB now!
10-day predictions


NORAD ID: 41421
Int'l Code: 2000-055LA
Perigee: 783.0 km
Apogee: 858.8 km
Inclination: 98.9 °
Period: 101.2 minutes
Semi major axis: 7191 km
RCS: Unknown
Launch date: September 21, 2000
Source: United States (US)
Launch site: AIR FORCE WESTERN TEST RANGE (AFWTR)

Note: This is SATELLITE DEBRIS
aabbcc
Your satellite tracking list
Your tracking list is empty




NASA's NSSDC Master Catalog

Two Line Element Set (TLE):
1 41421U 00055LA  19315.74563564  .00001091  00000-0  49378-3 0  9996
2 41421  98.9038  57.0901 0052651 301.5163  58.0877 14.23438494192819
Source of the keplerian elements: AFSPC